Flag for United Kingdom Weather past 2 weeks in Aberdeen, Scotland, United Kingdom

Now
52 °F

Clear.


Feels Like: 47 °F
Forecast: 47 / 53 °F
Wind: 15 mph from Southwest

Location: Aberdeen / Dyce

Current Time: Oct 23, 2014 at 7:12:17 AM

Latest Report: Oct 23, 2014 at 6:50 AM


Visibility: 10 mi

Pressure: 29.74 "Hg

Humidity: 88%

Dew point: 48 °F

Location of AberdeenLocation

Historic Weather in Aberdeen — Graph

°F

Aberdeen temperature yesterday

Maximum temperature yesterday: 54 °F (at 4:20 PM)
Minimum temperature yesterday: 41 °F (at 6:50 AM)
Average temperature yesterday: 48 °F

Past Weeks' High & Low Weather Summary

 TemperatureHumidityPressure
High64 °F (Oct 18, 12:50 PM)100% (Oct 8, 8:50 PM)30.01 "Hg (Oct 8, 8:50 PM)
Low37 °F (Oct 11, 5:50 AM)58% (Oct 14, 1:50 PM)28.94 "Hg (Oct 21, 6:20 AM)
Average50 °F84%29.63 "Hg
* Reported Oct 8 5:20 AM — Oct 23 5:50 AM, Aberdeen, Weather by CustomWeather, © 2014

Note: Actual official high and low records may vary slightly from our data, if they occured in-between our weather recording intervals... More about our weather records

Advertising

Aberdeen weather history for previous 24 hours

 ConditionsComfort  
Time TempWeatherWind HumidityBarometerVisibility
5:50 AM
Oct 23
52 °FPassing clouds.13 mph94%29.74 "HgN/A
5:20 AM52 °FPassing clouds.12 mph88%29.74 "HgN/A
4:50 AM52 °FPassing clouds.12 mph88%29.74 "HgN/A
4:20 AM52 °FCool.13 mph88%29.74 "HgN/A
3:50 AM52 °FPassing clouds.8 mph88%29.74 "HgN/A
3:20 AM52 °FPassing clouds.7 mph88%29.77 "HgN/A
2:50 AM52 °FClear.9 mph88%29.77 "Hg10 mi
2:20 AM52 °FCool.15 mph88%29.74 "HgN/A
1:50 AM52 °FClear.20 mph88%29.77 "Hg10 mi
1:20 AM52 °FCool.20 mph88%29.74 "HgN/A
12:50 AM54 °FClear.17 mph82%29.77 "Hg10 mi
12:20 AM54 °FCool.14 mph82%29.77 "HgN/A
11:50 PM
Oct 22
54 °FClear.17 mph82%29.74 "Hg10 mi
11:20 PM54 °FClear.12 mph82%29.77 "Hg10 mi
10:50 PM54 °FClear.15 mph82%29.77 "Hg10 mi
10:20 PM52 °FClear.15 mph88%29.77 "Hg10 mi
9:50 PM52 °FClear.10 mph88%29.80 "Hg10 mi
9:20 PM52 °FPassing clouds.12 mph88%29.80 "HgN/A
8:50 PM54 °FPassing clouds.14 mph82%29.83 "HgN/A
8:20 PM54 °FClear.14 mph82%29.83 "Hg10 mi
7:50 PM52 °FClear.12 mph88%29.83 "Hg10 mi
7:20 PM54 °FClear.12 mph82%29.83 "Hg10 mi
6:50 PM54 °FClear.18 mph88%29.83 "Hg10 mi
6:20 PM54 °FSunny.16 mph88%29.83 "Hg10 mi
5:50 PM52 °FSunny.15 mph88%29.83 "Hg10 mi
5:20 PM54 °FSunny.17 mph88%29.83 "Hg10 mi
4:50 PM54 °FSunny.18 mph88%29.83 "Hg10 mi
4:20 PM54 °FSunny.15 mph88%29.83 "Hg10 mi
3:20 PM52 °FSunny.13 mph88%29.86 "Hg10 mi
2:50 PM50 °FSprinkles. Clear.12 mph94%29.86 "HgN/A
2:20 PM48 °FPassing clouds.8 mph94%29.89 "HgN/A
1:50 PM46 °FClear.10 mph93%29.92 "HgN/A
1:20 PM46 °FLight rain. Clear.12 mph93%29.92 "HgN/A
12:50 PM46 °FLight rain. Scattered clouds.10 mph93%29.95 "HgN/A
12:20 PM48 °FRain. Scattered clouds.8 mph87%29.98 "Hg6 mi
11:50 AM48 °FLight rain. Scattered clouds.6 mph87%29.98 "HgN/A
11:20 AM46 °FLight rain. Scattered clouds.10 mph82%29.98 "HgN/A
10:50 AM48 °FLight rain. Clear.9 mph76%29.98 "HgN/A
10:20 AM46 °FPassing clouds.6 mph76%30.01 "HgN/A
9:50 AM46 °FSunny.8 mph76%30.01 "Hg10 mi
9:20 AM46 °FPassing clouds.6 mph71%30.01 "HgN/A
8:50 AM45 °FPassing clouds.7 mph76%30.01 "HgN/A
8:20 AM45 °FPassing clouds.6 mph81%30.01 "HgN/A
7:50 AM45 °FPassing clouds.7 mph81%30.01 "HgN/A
7:20 AM43 °FPassing clouds.5 mph81%30.01 "HgN/A
Weather by CustomWeather, © 2014

See weather overviewHow to use our weather pages